Flag for U.S.A. Weather past 2 weeks in Frankfort, Kentucky, U.S.A.

Now
24 °F

Clear.


Feels Like: 24 °F
Forecast: 24 / 43 °F
Wind: No wind

Location: Capital City Airport

Current Time: Dec 21, 2014 at 1:33:26 AM

Latest Report: Dec 21, 2014 at 12:53 AM


Visibility: 7 mi

Pressure: 30.29 "Hg

Humidity: 84%

Dew point: 20 °F

Location of FrankfortLocation

Historic Weather in Frankfort — Graph

°F

Frankfort temperature yesterday

Maximum temperature yesterday: 35 °F (at 2:53 PM)
Minimum temperature yesterday: 24 °F (at 10:53 PM)
Average temperature yesterday: 30 °F

Past Weeks' High & Low Weather Summary

 TemperatureHumidityPressure
High58 °F (Dec 6, 2:53 AM)97% (Dec 5, 11:53 PM)30.56 "Hg (Dec 5, 11:53 PM)
Low22 °F (Dec 12, 6:53 AM)47% (Dec 12, 3:53 PM)29.71 "Hg (Dec 16, 4:53 AM)
Average37 °F75%30.22 "Hg
* Reported Dec 5 11:53 PM — Dec 20 11:53 PM, Frankfort, Weather by CustomWeather, © 2014

Note: Actual official high and low records may vary slightly from our data, if they occured in-between our weather recording intervals... More about our weather records

Advertising

Frankfort weather history for previous 24 hours

 ConditionsComfort  
Time TempWeatherWind HumidityBarometerVisibility
11:53 PM
Dec 20
24 °FClear.No wind88%30.31 "Hg9 mi
10:53 PM24 °FClear.No wind88%30.31 "Hg8 mi
9:53 PM27 °FClear.No wind85%30.30 "Hg9 mi
8:53 PM32 °FPassing clouds.No wind75%30.30 "Hg10 mi
7:53 PM33 °FOvercast.No wind72%30.30 "Hg10 mi
6:53 PM33 °FOvercast.5 mph72%30.29 "Hg10 mi
5:53 PM34 °FOvercast.5 mph70%30.29 "Hg10 mi
4:53 PM35 °FOvercast.No wind67%30.27 "Hg10 mi
3:53 PM35 °FOvercast.No wind67%30.25 "Hg10 mi
2:53 PM35 °FOvercast.No wind67%30.24 "Hg10 mi
1:53 PM34 °FMostly cloudy.No wind70%30.25 "Hg10 mi
12:53 PM34 °FMostly cloudy.No wind67%30.27 "Hg9 mi
11:53 AM33 °FMore clouds than sun.3 mph72%30.29 "Hg8 mi
10:53 AM32 °FOvercast.3 mph75%30.30 "Hg8 mi
9:53 AM30 °FMostly cloudy.5 mph79%30.30 "Hg8 mi
8:53 AM29 °FOvercast.5 mph79%30.29 "Hg7 mi
7:53 AM28 °FMostly cloudy.3 mph81%30.29 "Hg9 mi
6:53 AM28 °FOvercast.5 mph81%30.27 "Hg9 mi
5:53 AM28 °FMostly cloudy.5 mph78%30.27 "Hg10 mi
4:53 AM28 °FMostly cloudy.3 mph78%30.26 "Hg10 mi
3:53 AM28 °FOvercast.3 mph78%30.26 "Hg10 mi
2:53 AM28 °FOvercast.6 mph78%30.26 "Hg10 mi
1:53 AM27 °FOvercast.3 mph81%30.28 "Hg9 mi
Weather by CustomWeather, © 2014

See weather overviewHow to use our weather pages